Location: Champs
(48.8539°N, 2.6040°E)
Time: 10:25:24
(UTC+00:00)

deb Kosmos-2150 - Visible Passes

Search period start: 17 August 2022 00:00
Search period end: 27 August 2022 00:00
Orbit: 750 x 757 km, 74.1° (Epoch: 16 August)

Date Brightness Start Highest point End Pass type
(mag) Time Alt. Az. Time Alt. Az. Time Alt. Az.
21 Aug ? 04:10:30 10° SE 04:14:16 21° E 04:18:03 10° NE visible
22 Aug ? 03:31:40 10° ESE 03:33:16 11° E 03:34:53 10° ENE visible
24 Aug ? 03:47:24 10° SSE 03:51:36 26° E 03:55:48 10° NE visible
25 Aug ? 03:07:50 10° SE 03:10:33 14° E 03:13:17 10° ENE visible
26 Aug ? 04:05:09 10° S 04:10:10 55° ESE 04:15:14 10° NNE visible
